DLH491 KSEA-EDDF

Flight info

Callsign DLH491
Flight time N/A
Altitude 37000
Route MONTN2 SEA DCT ALPSE DCT YDC DCT YXC DCT 5130N11000W 5430N10000W 5630N09000W 5730N08000W/N0491F390 5830N07000W DCT FASSA DCT SINGA/M084F390 DCT SAVRY DCT 60N050W 60N040W 5930N03000W 58N020W DCT SUNOT/N0494F390 DCT KESIX DCT AMLAD DCT ERKIT N110 DOLAS DCT NAVPI DCT SOGPO DCT DIXAT DIXAT1A
Aircraft A359/H-SDE2E3GHIJ3J4J5LM1ORWXY/LB1D1

Departure

Time N/A
Airport Seattle–Tacoma International Airport (KSEA)

Arrival

Time 2026-04-16 21:29
Airport Frankfurt Main Airport (EDDF)
Time Latitude Longitude Altitude Speed Heading
2026-04-16 18:34 59.15444 -27.08112 38642 ft 504 kts 106°
2026-04-16 18:34 59.14577 -27.01500 38644 ft 504 kts 106°
2026-04-16 18:34 59.12833 -26.88289 38643 ft 504 kts 106°
2026-04-16 18:35 59.11075 -26.75096 38641 ft 504 kts 106°
2026-04-16 18:35 59.09303 -26.61904 38645 ft 504 kts 106°
2026-04-16 18:36 59.07517 -26.48724 38645 ft 504 kts 107°
2026-04-16 18:36 59.05718 -26.35557 38641 ft 504 kts 107°
2026-04-16 18:37 59.03920 -26.22509 38642 ft 503 kts 107°
2026-04-16 18:37 59.02096 -26.09384 38642 ft 503 kts 107°
2026-04-16 18:38 59.00260 -25.96280 38639 ft 503 kts 107°
2026-04-16 18:38 58.98410 -25.83188 38639 ft 503 kts 107°
2026-04-16 18:39 58.96548 -25.70109 38637 ft 503 kts 107°
2026-04-16 18:39 58.94672 -25.57046 38631 ft 503 kts 107°
2026-04-16 18:40 58.92783 -25.44001 38636 ft 503 kts 107°
2026-04-16 18:40 58.90880 -25.30963 38633 ft 503 kts 107°
2026-04-16 18:41 58.88965 -25.17939 38636 ft 503 kts 108°
2026-04-16 18:41 58.87037 -25.04938 38638 ft 504 kts 108°
2026-04-16 18:42 58.85095 -24.91940 38629 ft 504 kts 108°
2026-04-16 18:42 58.83139 -24.78955 38628 ft 504 kts 108°
2026-04-16 18:43 58.81169 -24.65979 38622 ft 503 kts 108°
2026-04-16 18:43 58.79189 -24.53030 38628 ft 503 kts 108°
2026-04-16 18:44 58.77193 -24.40085 38625 ft 503 kts 108°
2026-04-16 18:44 58.75187 -24.27170 38621 ft 503 kts 108°
2026-04-16 18:45 58.73167 -24.14261 38620 ft 504 kts 108°
2026-04-16 18:45 58.71134 -24.01363 38621 ft 504 kts 109°
2026-04-16 18:46 58.69088 -23.88488 38617 ft 504 kts 109°
2026-04-16 18:46 58.67043 -23.75709 38616 ft 504 kts 109°
2026-04-16 18:47 58.64970 -23.62849 38614 ft 504 kts 109°
2026-04-16 18:47 58.62887 -23.50023 38614 ft 504 kts 109°
2026-04-16 18:48 58.61130 -23.39279 38612 ft 504 kts 109°
2026-04-16 18:48 58.59022 -23.26476 38611 ft 504 kts 109°
2026-04-16 18:49 58.56901 -23.13682 38610 ft 504 kts 109°
2026-04-16 18:49 58.54781 -23.00982 38608 ft 504 kts 110°
2026-04-16 18:50 58.52636 -22.88231 38606 ft 503 kts 110°
2026-04-16 18:50 58.50478 -22.75490 38606 ft 503 kts 110°
2026-04-16 18:51 58.48307 -22.62763 38600 ft 503 kts 110°
2026-04-16 18:51 58.46124 -22.50056 38591 ft 503 kts 110°
2026-04-16 18:52 58.43929 -22.37364 38599 ft 503 kts 110°
2026-04-16 18:52 58.41721 -22.24687 38597 ft 503 kts 110°
2026-04-16 18:53 58.39499 -22.12019 38594 ft 503 kts 110°
2026-04-16 18:53 58.37266 -21.99377 38591 ft 503 kts 111°
2026-04-16 18:54 58.35023 -21.86760 38596 ft 503 kts 111°
2026-04-16 18:54 58.32765 -21.74151 38590 ft 503 kts 111°
2026-04-16 18:55 58.30495 -21.61554 38583 ft 503 kts 111°
2026-04-16 18:55 58.28217 -21.48997 38590 ft 503 kts 111°
2026-04-16 18:56 58.25938 -21.36521 38589 ft 503 kts 111°
2026-04-16 18:56 58.23633 -21.23985 38590 ft 503 kts 111°
2026-04-16 18:57 58.21317 -21.11474 38584 ft 503 kts 111°
2026-04-16 18:58 58.17816 -20.92716 38583 ft 503 kts 112°
2026-04-16 18:58 58.15468 -20.80235 38578 ft 503 kts 112°
2026-04-16 18:59 58.13109 -20.67774 38575 ft 503 kts 112°
2026-04-16 18:59 58.10738 -20.55335 38579 ft 503 kts 112°
2026-04-16 19:00 58.08354 -20.42907 38578 ft 503 kts 112°
2026-04-16 19:00 58.05957 -20.30490 38579 ft 503 kts 112°
2026-04-16 19:01 58.03546 -20.18085 38580 ft 503 kts 112°
2026-04-16 19:01 58.01127 -20.05710 38561 ft 503 kts 112°
2026-04-16 19:02 57.98733 -19.93319 38566 ft 503 kts 111°
2026-04-16 19:02 57.96553 -19.80875 38570 ft 504 kts 110°
2026-04-16 19:03 57.94381 -19.68312 38567 ft 504 kts 111°
2026-04-16 19:03 57.92167 -19.55793 38567 ft 504 kts 111°
2026-04-16 19:04 57.89923 -19.43314 38567 ft 504 kts 111°
2026-04-16 19:04 57.87662 -19.30854 38567 ft 504 kts 111°
2026-04-16 19:05 57.85391 -19.18412 38554 ft 504 kts 111°
2026-04-16 19:05 57.83107 -19.05985 38564 ft 503 kts 111°
2026-04-16 19:06 57.80814 -18.93579 38564 ft 503 kts 111°
2026-04-16 19:06 57.78509 -18.81194 38564 ft 503 kts 112°
2026-04-16 19:07 57.76192 -18.68828 38561 ft 503 kts 112°
2026-04-16 19:07 57.73863 -18.56471 38561 ft 503 kts 112°
2026-04-16 19:08 57.71521 -18.44131 38556 ft 503 kts 112°
2026-04-16 19:08 57.69168 -18.31807 38556 ft 503 kts 112°
2026-04-16 19:09 57.66803 -18.19502 38562 ft 503 kts 112°
2026-04-16 19:09 57.64441 -18.07290 38561 ft 503 kts 112°
2026-04-16 19:10 57.62037 -17.94940 38559 ft 503 kts 112°
2026-04-16 19:10 57.59650 -17.82753 38562 ft 503 kts 112°
2026-04-16 19:11 57.57239 -17.70517 38548 ft 503 kts 113°
2026-04-16 19:11 57.54815 -17.58296 38559 ft 503 kts 113°
2026-04-16 19:12 57.52379 -17.46087 38557 ft 503 kts 113°
2026-04-16 19:12 57.49929 -17.33885 38556 ft 503 kts 113°
2026-04-16 19:13 57.47470 -17.21713 38563 ft 503 kts 113°
2026-04-16 19:13 57.44998 -17.09549 38561 ft 503 kts 114°
2026-04-16 19:14 57.42514 -16.97400 38541 ft 503 kts 114°
2026-04-16 19:14 57.40017 -16.85265 38551 ft 504 kts 114°
2026-04-16 19:15 57.37508 -16.73144 38552 ft 504 kts 114°
2026-04-16 19:15 57.34988 -16.61040 38547 ft 503 kts 114°
2026-04-16 19:16 57.32458 -16.48959 38549 ft 503 kts 114°
2026-04-16 19:16 57.29917 -16.36902 38551 ft 503 kts 114°
2026-04-16 19:17 57.27365 -16.24861 38534 ft 503 kts 115°
2026-04-16 19:17 57.24799 -16.12824 38542 ft 503 kts 115°
2026-04-16 19:18 57.22221 -16.00807 38539 ft 504 kts 115°
2026-04-16 19:18 57.19631 -15.88801 38539 ft 504 kts 115°
2026-04-16 19:19 57.17033 -15.76823 38545 ft 503 kts 115°
2026-04-16 19:19 57.14422 -15.64857 38540 ft 503 kts 115°
2026-04-16 19:20 57.11817 -15.52989 38534 ft 503 kts 115°
2026-04-16 19:20 57.09185 -15.41065 38538 ft 503 kts 115°
2026-04-16 19:21 57.06540 -15.29152 38533 ft 503 kts 115°
2026-04-16 19:21 57.03885 -15.17261 38532 ft 503 kts 115°
2026-04-16 19:22 57.01242 -15.05374 38506 ft 504 kts 113°
2026-04-16 19:22 56.99691 -14.92783 38527 ft 510 kts 100°
2026-04-16 19:23 56.98981 -14.79831 38522 ft 511 kts 97°
2026-04-16 19:23 56.98398 -14.66836 38527 ft 511 kts 97°
2026-04-16 19:24 56.97794 -14.53843 38528 ft 511 kts 98°
2026-04-16 19:24 56.97157 -14.40946 38526 ft 511 kts 98°
2026-04-16 19:25 56.96492 -14.27980 38527 ft 511 kts 98°
2026-04-16 19:25 56.95812 -14.15023 38525 ft 511 kts 98°
2026-04-16 19:26 56.95065 -14.02091 38529 ft 509 kts 102°
2026-04-16 19:26 56.93430 -13.89533 38527 ft 506 kts 108°
2026-04-16 19:27 56.91536 -13.77121 38528 ft 506 kts 109°
2026-04-16 19:27 56.89591 -13.64750 38524 ft 506 kts 109°
2026-04-16 19:28 56.87643 -13.52385 38525 ft 506 kts 109°
2026-04-16 19:28 56.85694 -13.40023 38529 ft 506 kts 109°
2026-04-16 19:29 56.83738 -13.27684 38528 ft 506 kts 109°
2026-04-16 19:29 56.81768 -13.15349 38534 ft 506 kts 109°
2026-04-16 19:30 56.79786 -13.03028 38530 ft 506 kts 110°
2026-04-16 19:30 56.77790 -12.90713 38528 ft 506 kts 110°
2026-04-16 19:31 56.75786 -12.78432 38536 ft 505 kts 110°
2026-04-16 19:31 56.73771 -12.66173 38543 ft 505 kts 110°
2026-04-16 19:32 56.71742 -12.53916 38544 ft 506 kts 110°
2026-04-16 19:32 56.69710 -12.41726 38556 ft 507 kts 110°
2026-04-16 19:33 56.67638 -12.29387 38553 ft 507 kts 110°
2026-04-16 19:33 56.65583 -12.17226 38559 ft 507 kts 110°
2026-04-16 19:34 56.63503 -12.05002 38567 ft 506 kts 111°
2026-04-16 19:34 56.61412 -11.92796 38567 ft 506 kts 111°
2026-04-16 19:35 56.59649 -11.82576 38574 ft 506 kts 111°
2026-04-16 19:35 56.57536 -11.70397 38576 ft 506 kts 111°
2026-04-16 19:36 56.55412 -11.58232 38574 ft 507 kts 111°
2026-04-16 19:36 56.53271 -11.46057 38581 ft 507 kts 111°
2026-04-16 19:37 56.51119 -11.33905 38600 ft 507 kts 111°
2026-04-16 19:37 56.48972 -11.21855 38600 ft 506 kts 111°
2026-04-16 19:38 56.46798 -11.09736 38611 ft 506 kts 111°
2026-04-16 19:38 56.44613 -10.97629 38606 ft 507 kts 112°
2026-04-16 19:39 56.42410 -10.85513 38631 ft 508 kts 112°
2026-04-16 19:39 56.40193 -10.73395 38628 ft 508 kts 112°
2026-04-16 19:40 56.37966 -10.61291 38630 ft 508 kts 112°
2026-04-16 19:40 56.35725 -10.49196 38649 ft 509 kts 112°
2026-04-16 19:41 56.33470 -10.37107 38643 ft 509 kts 112°
2026-04-16 19:41 56.31201 -10.25018 38659 ft 509 kts 112°
2026-04-16 19:42 56.28921 -10.12945 38661 ft 509 kts 112°
2026-04-16 19:42 56.26629 -10.00889 38672 ft 509 kts 113°
2026-04-16 19:43 56.24310 -9.88865 38669 ft 509 kts 113°
2026-04-16 19:43 56.21950 -9.76872 38689 ft 509 kts 113°
2026-04-16 19:44 56.19579 -9.64893 38675 ft 509 kts 114°
2026-04-16 19:44 56.17199 -9.52910 38702 ft 510 kts 114°
2026-04-16 19:45 56.14809 -9.40941 38708 ft 510 kts 114°
2026-04-16 19:45 56.12408 -9.28982 38719 ft 510 kts 114°
2026-04-16 19:46 56.09995 -9.17040 38719 ft 510 kts 114°
2026-04-16 19:46 56.07571 -9.05116 38736 ft 510 kts 114°
2026-04-16 19:47 56.05133 -8.93198 38738 ft 510 kts 115°
2026-04-16 19:47 56.02698 -8.81360 38749 ft 510 kts 115°
2026-04-16 19:48 56.00237 -8.69465 38751 ft 510 kts 115°
2026-04-16 19:48 55.97766 -8.57596 38771 ft 510 kts 115°
2026-04-16 19:49 55.95285 -8.45747 38757 ft 510 kts 115°
2026-04-16 19:49 55.92790 -8.33903 38779 ft 510 kts 115°
2026-04-16 19:50 55.90282 -8.22067 38776 ft 510 kts 115°
2026-04-16 19:50 55.87764 -8.10252 38787 ft 510 kts 116°
2026-04-16 19:51 55.85234 -7.98446 38789 ft 510 kts 116°
2026-04-16 19:51 55.82694 -7.86662 38781 ft 510 kts 116°
2026-04-16 19:52 55.80136 -7.74867 38803 ft 511 kts 116°
2026-04-16 19:52 55.77587 -7.63176 38811 ft 511 kts 116°
2026-04-16 19:53 55.75007 -7.51409 38811 ft 511 kts 116°
2026-04-16 19:53 55.72420 -7.39675 38826 ft 511 kts 116°
2026-04-16 19:54 55.69821 -7.27958 38810 ft 510 kts 116°
2026-04-16 19:54 55.67209 -7.16249 38840 ft 511 kts 116°
2026-04-16 19:55 55.64585 -7.04549 38840 ft 511 kts 116°
2026-04-16 19:55 55.61950 -6.92865 38853 ft 511 kts 116°
2026-04-16 19:56 55.59305 -6.81200 38831 ft 511 kts 117°
2026-04-16 19:56 55.56651 -6.69559 38850 ft 510 kts 117°
2026-04-16 19:57 55.53981 -6.57920 38865 ft 512 kts 117°
2026-04-16 19:57 55.51292 -6.46258 38882 ft 512 kts 117°
2026-04-16 19:58 55.48614 -6.34702 38882 ft 512 kts 117°
2026-04-16 19:58 55.45906 -6.23084 38881 ft 512 kts 117°
2026-04-16 19:59 55.43188 -6.11487 38895 ft 512 kts 117°
2026-04-16 19:59 55.40460 -5.99908 38900 ft 512 kts 117°
2026-04-16 20:00 55.36349 -5.82574 38913 ft 512 kts 117°
2026-04-16 20:00 55.33595 -5.71044 38918 ft 511 kts 118°
2026-04-16 20:01 55.30833 -5.59537 38919 ft 511 kts 118°
2026-04-16 20:01 55.28060 -5.48051 38937 ft 512 kts 118°
2026-04-16 20:02 55.25272 -5.36563 38938 ft 512 kts 118°
2026-04-16 20:02 55.22473 -5.25086 38957 ft 512 kts 118°
2026-04-16 20:03 55.19662 -5.13619 38955 ft 512 kts 118°
2026-04-16 20:03 55.16843 -5.02179 38964 ft 512 kts 118°
2026-04-16 20:04 55.14012 -4.90752 38954 ft 511 kts 118°
2026-04-16 20:04 55.11179 -4.79375 38976 ft 511 kts 118°
2026-04-16 20:05 55.08334 -4.68014 38981 ft 511 kts 118°
2026-04-16 20:05 55.05478 -4.56664 38991 ft 511 kts 118°
2026-04-16 20:06 55.02613 -4.45333 38994 ft 511 kts 119°
2026-04-16 20:06 54.99757 -4.34100 38994 ft 511 kts 119°
2026-04-16 20:07 54.96867 -4.22789 39011 ft 512 kts 119°
2026-04-16 20:07 54.93964 -4.11481 39015 ft 512 kts 119°
2026-04-16 20:08 54.91055 -4.00208 39017 ft 510 kts 119°
2026-04-16 20:08 54.88139 -3.88964 39006 ft 510 kts 120°
2026-04-16 20:09 54.85215 -3.77750 39013 ft 510 kts 119°
2026-04-16 20:09 54.82274 -3.66528 39023 ft 512 kts 120°
2026-04-16 20:10 54.79318 -3.55301 39026 ft 512 kts 120°
2026-04-16 20:10 54.76352 -3.44088 39034 ft 512 kts 120°
2026-04-16 20:11 54.73374 -3.32887 39031 ft 512 kts 120°
2026-04-16 20:11 54.70385 -3.21704 39018 ft 512 kts 120°
2026-04-16 20:12 54.67406 -3.10612 39043 ft 513 kts 120°
2026-04-16 20:12 54.64393 -2.99446 39051 ft 513 kts 120°
2026-04-16 20:13 54.61372 -2.88306 39055 ft 513 kts 120°
2026-04-16 20:13 54.58339 -2.77171 39059 ft 513 kts 120°
2026-04-16 20:14 54.55298 -2.66063 39048 ft 513 kts 120°
2026-04-16 20:14 54.52237 -2.54941 39067 ft 515 kts 120°
2026-04-16 20:15 54.49158 -2.43806 39069 ft 515 kts 120°
2026-04-16 20:15 54.46071 -2.32687 39066 ft 515 kts 121°
2026-04-16 20:16 54.42976 -2.21600 39068 ft 514 kts 121°
2026-04-16 20:16 54.39874 -2.10539 39064 ft 514 kts 120°
2026-04-16 20:17 54.36754 -1.99471 39074 ft 516 kts 121°
2026-04-16 20:17 54.33621 -1.88405 39072 ft 516 kts 121°
2026-04-16 20:18 54.30476 -1.77351 39077 ft 516 kts 121°
2026-04-16 20:18 54.27322 -1.66318 39074 ft 516 kts 121°
2026-04-16 20:19 54.24158 -1.55301 39063 ft 516 kts 121°
2026-04-16 20:19 54.20973 -1.44269 39077 ft 518 kts 121°
2026-04-16 20:20 54.18314 -1.35093 39070 ft 519 kts 121°
2026-04-16 20:20 54.14584 -1.22278 39076 ft 519 kts 121°
2026-04-16 20:21 54.11364 -1.11276 39085 ft 518 kts 121°
2026-04-16 20:21 54.08133 -1.00288 39078 ft 519 kts 121°
2026-04-16 20:22 54.05397 -0.91099 39088 ft 518 kts 123°
2026-04-16 20:22 54.01172 -0.81510 39095 ft 504 kts 142°
2026-04-16 20:23 53.95716 -0.74235 39089 ft 497 kts 150°
2026-04-16 20:23 53.90025 -0.67602 39091 ft 496 kts 152°
2026-04-16 20:24 53.84312 -0.61061 39107 ft 496 kts 152°
2026-04-16 20:24 53.78611 -0.54487 39114 ft 496 kts 151°
2026-04-16 20:25 53.72921 -0.47902 39104 ft 496 kts 151°
2026-04-16 20:25 53.67231 -0.41322 39129 ft 496 kts 152°
2026-04-16 20:26 53.61526 -0.34751 39130 ft 496 kts 152°
2026-04-16 20:26 53.56300 -0.26984 39131 ft 509 kts 135°
2026-04-16 20:27 53.51877 -0.17639 39125 ft 512 kts 132°
2026-04-16 20:27 53.47637 -0.08114 39120 ft 512 kts 131°
2026-04-16 20:28 53.43368 0.01468 39122 ft 512 kts 131°
2026-04-16 20:28 53.39062 0.11008 39121 ft 513 kts 132°
2026-04-16 20:29 53.34733 0.20521 39106 ft 514 kts 132°
2026-04-16 20:29 53.30393 0.30015 39128 ft 513 kts 132°
2026-04-16 20:30 53.26050 0.39482 39129 ft 513 kts 132°
2026-04-16 20:30 53.21699 0.48946 39129 ft 514 kts 132°
2026-04-16 20:31 53.17325 0.58405 39129 ft 516 kts 132°
2026-04-16 20:31 53.12934 0.67866 39134 ft 516 kts 132°
2026-04-16 20:32 53.08561 0.77258 39135 ft 516 kts 132°
2026-04-16 20:32 53.04152 0.86694 39142 ft 516 kts 132°
2026-04-16 20:33 52.99765 0.96125 39118 ft 518 kts 130°
2026-04-16 20:33 52.96369 1.06756 39142 ft 526 kts 115°
2026-04-16 20:34 52.93712 1.18080 39143 ft 528 kts 113°
2026-04-16 20:34 52.91166 1.29507 39148 ft 528 kts 113°
2026-04-16 20:35 52.88603 1.40902 39148 ft 528 kts 114°
2026-04-16 20:35 52.86006 1.52262 39134 ft 528 kts 113°
2026-04-16 20:36 52.83383 1.63625 39154 ft 528 kts 114°
2026-04-16 20:36 52.80748 1.74969 39154 ft 528 kts 114°
2026-04-16 20:37 52.78105 1.86297 39157 ft 528 kts 114°
2026-04-16 20:37 52.75452 1.97607 39157 ft 528 kts 114°
2026-04-16 20:38 52.72783 2.08926 39165 ft 529 kts 114°
2026-04-16 20:38 52.70126 2.20141 39165 ft 528 kts 114°
2026-04-16 20:39 52.67440 2.31413 39170 ft 529 kts 114°
2026-04-16 20:39 52.64743 2.42676 39173 ft 529 kts 114°
2026-04-16 20:40 52.62034 2.53929 39176 ft 528 kts 114°
2026-04-16 20:40 52.59316 2.65164 39181 ft 528 kts 114°
2026-04-16 20:41 52.56588 2.76379 39181 ft 528 kts 114°
2026-04-16 20:41 52.54178 2.87794 39184 ft 530 kts 107°
2026-04-16 20:42 52.52285 2.99496 39186 ft 530 kts 105°
2026-04-16 20:42 52.50469 3.11238 39192 ft 531 kts 105°
2026-04-16 20:43 52.48646 3.22976 39200 ft 531 kts 105°
2026-04-16 20:43 52.46798 3.34705 39196 ft 531 kts 105°
2026-04-16 20:44 52.44933 3.46409 39204 ft 530 kts 105°
2026-04-16 20:44 52.43058 3.58092 39210 ft 530 kts 105°
2026-04-16 20:45 52.41170 3.69770 39213 ft 530 kts 105°
2026-04-16 20:45 52.39270 3.81448 39214 ft 530 kts 105°
2026-04-16 20:46 52.37360 3.93111 39214 ft 530 kts 106°
2026-04-16 20:46 52.35438 4.04759 39222 ft 531 kts 105°
2026-04-16 20:47 52.33504 4.16407 39225 ft 531 kts 105°
2026-04-16 20:47 52.31572 4.27965 39225 ft 531 kts 106°
2026-04-16 20:48 52.29614 4.39594 39231 ft 531 kts 106°
2026-04-16 20:48 52.27645 4.51216 39231 ft 531 kts 106°
2026-04-16 20:49 52.25667 4.62812 39236 ft 531 kts 106°
2026-04-16 20:49 52.23675 4.74412 39238 ft 531 kts 106°
2026-04-16 20:50 52.21672 4.86000 39238 ft 531 kts 106°
2026-04-16 20:50 52.19658 4.97574 39238 ft 531 kts 106°
2026-04-16 20:51 52.17632 5.09143 39239 ft 531 kts 106°
2026-04-16 20:51 52.15596 5.20695 39235 ft 530 kts 106°
2026-04-16 20:52 52.13552 5.32217 39242 ft 530 kts 107°
2026-04-16 20:52 52.11496 5.43730 39244 ft 530 kts 106°
2026-04-16 20:53 52.09428 5.55243 39248 ft 530 kts 106°
2026-04-16 20:53 52.07350 5.66734 39233 ft 530 kts 107°
2026-04-16 20:54 52.05275 5.78141 39237 ft 530 kts 107°
2026-04-16 20:54 52.03174 5.89615 39242 ft 530 kts 107°
2026-04-16 20:55 52.01061 6.01078 39242 ft 530 kts 107°
2026-04-16 20:55 51.98937 6.12541 39248 ft 530 kts 107°
2026-04-16 20:56 51.96043 6.23492 39246 ft 528 kts 124°
2026-04-16 20:56 51.93852 6.28236 39246 ft 524 kts 135°
2026-04-16 20:56 51.91220 6.32287 39250 ft 521 kts 143°
2026-04-16 20:57 51.85589 6.39671 39236 ft 522 kts 144°
2026-04-16 20:57 51.79929 6.47009 39238 ft 521 kts 144°
2026-04-16 20:58 51.74274 6.54340 39235 ft 521 kts 144°
2026-04-16 20:58 51.71442 6.58004 39047 ft 521 kts 144°
2026-04-16 20:58 51.68649 6.61614 38814 ft 522 kts 144°
2026-04-16 20:59 51.65777 6.65319 38540 ft 523 kts 144°
2026-04-16 20:59 51.62974 6.68931 38247 ft 523 kts 144°
2026-04-16 20:59 51.60126 6.72594 37935 ft 524 kts 144°
2026-04-16 20:59 51.57276 6.76254 37676 ft 525 kts 144°
2026-04-16 21:00 51.54413 6.79924 37404 ft 527 kts 144°
2026-04-16 21:00 51.51547 6.83592 37136 ft 528 kts 144°
2026-04-16 21:00 51.48667 6.87273 36870 ft 529 kts 144°
2026-04-16 21:00 51.45791 6.90943 36425 ft 527 kts 144°
2026-04-16 21:01 51.42929 6.94590 35743 ft 526 kts 144°
2026-04-16 21:01 51.40059 6.98239 35028 ft 527 kts 144°
2026-04-16 21:01 51.37179 7.01893 34219 ft 530 kts 145°
2026-04-16 21:01 51.34279 7.05567 33292 ft 532 kts 144°
2026-04-16 21:02 51.31375 7.09241 32435 ft 532 kts 144°
2026-04-16 21:02 51.28458 7.12905 31583 ft 533 kts 146°
2026-04-16 21:02 51.25372 7.16126 30712 ft 529 kts 155°
2026-04-16 21:03 51.18802 7.21436 28791 ft 528 kts 157°
2026-04-16 21:03 51.15535 7.24005 28157 ft 521 kts 157°
2026-04-16 21:03 51.12301 7.26551 27511 ft 515 kts 157°
2026-04-16 21:03 51.09117 7.29098 26842 ft 510 kts 156°
2026-04-16 21:04 51.05981 7.31686 26172 ft 505 kts 155°
2026-04-16 21:04 51.02875 7.34261 25523 ft 501 kts 155°
2026-04-16 21:04 50.99799 7.36806 24874 ft 496 kts 155°
2026-04-16 21:04 50.96754 7.39317 24230 ft 491 kts 155°
2026-04-16 21:05 50.93775 7.41767 23554 ft 487 kts 155°
2026-04-16 21:05 50.90787 7.44219 22883 ft 480 kts 155°
2026-04-16 21:05 50.87838 7.46636 22244 ft 473 kts 155°
2026-04-16 21:05 50.84937 7.49011 21607 ft 467 kts 155°
2026-04-16 21:06 50.82068 7.51353 20990 ft 460 kts 155°
2026-04-16 21:06 50.79240 7.53658 20370 ft 455 kts 155°
2026-04-16 21:06 50.76441 7.55937 19744 ft 450 kts 155°
2026-04-16 21:06 50.73673 7.58187 19114 ft 445 kts 155°
2026-04-16 21:07 50.70929 7.60414 18482 ft 442 kts 155°
2026-04-16 21:07 50.68215 7.62618 17840 ft 436 kts 155°
2026-04-16 21:07 50.65523 7.64800 17340 ft 434 kts 155°
2026-04-16 21:07 50.62843 7.66965 16805 ft 432 kts 155°
2026-04-16 21:08 50.60182 7.69114 16276 ft 427 kts 155°
2026-04-16 21:08 50.57552 7.71241 15793 ft 423 kts 155°
2026-04-16 21:08 50.54944 7.73342 15317 ft 419 kts 155°
2026-04-16 21:08 50.52353 7.75422 14842 ft 416 kts 155°
2026-04-16 21:09 50.50651 7.76789 14528 ft 413 kts 155°
2026-04-16 21:09 50.48100 7.78834 14066 ft 410 kts 155°
2026-04-16 21:09 50.45571 7.80862 13565 ft 407 kts 155°
2026-04-16 21:09 50.43134 7.83065 13110 ft 403 kts 147°
2026-04-16 21:10 50.40901 7.85700 12737 ft 399 kts 143°
2026-04-16 21:10 50.38737 7.88395 12363 ft 396 kts 143°
2026-04-16 21:10 50.36590 7.91075 11983 ft 393 kts 142°
2026-04-16 21:10 50.34459 7.93727 11623 ft 389 kts 143°
2026-04-16 21:11 50.32349 7.96344 11297 ft 382 kts 143°
2026-04-16 21:11 50.30313 7.98866 11082 ft 366 kts 143°
2026-04-16 21:11 50.28361 8.01280 10867 ft 351 kts 143°
2026-04-16 21:11 50.26555 8.03627 10571 ft 325 kts 136°
2026-04-16 21:12 50.25120 8.06225 10314 ft 309 kts 129°
2026-04-16 21:12 50.23842 8.08823 10237 ft 293 kts 129°
2026-04-16 21:12 50.22667 8.11230 10243 ft 269 kts 129°
2026-04-16 21:12 50.21560 8.13491 10242 ft 258 kts 129°
2026-04-16 21:13 50.20472 8.15702 10231 ft 257 kts 129°
2026-04-16 21:13 50.19380 8.17912 10233 ft 257 kts 129°
2026-04-16 21:13 50.18289 8.20121 10231 ft 257 kts 129°
2026-04-16 21:13 50.17198 8.22326 10231 ft 257 kts 129°
2026-04-16 21:14 50.16106 8.24532 10228 ft 257 kts 129°
2026-04-16 21:14 50.15014 8.26737 10227 ft 257 kts 129°
2026-04-16 21:14 50.13918 8.28948 10172 ft 259 kts 129°
2026-04-16 21:14 50.12818 8.31163 9915 ft 258 kts 129°
2026-04-16 21:15 50.11720 8.33371 9655 ft 257 kts 129°
2026-04-16 21:15 50.10724 8.35682 9382 ft 258 kts 117°
2026-04-16 21:15 50.10255 8.38323 9126 ft 257 kts 93°
2026-04-16 21:15 50.10496 8.41061 8871 ft 256 kts 72°
2026-04-16 21:16 50.11094 8.43675 8606 ft 256 kts 69°
2026-04-16 21:16 50.11736 8.46259 8347 ft 256 kts 69°
2026-04-16 21:16 50.12373 8.48846 8221 ft 256 kts 69°
2026-04-16 21:16 50.13005 8.51443 8211 ft 256 kts 69°
2026-04-16 21:17 50.13631 8.54039 8210 ft 256 kts 69°
2026-04-16 21:17 50.14255 8.56638 8211 ft 256 kts 69°
2026-04-16 21:17 50.14875 8.59235 8212 ft 256 kts 69°
2026-04-16 21:17 50.15495 8.61833 8212 ft 256 kts 69°
2026-04-16 21:18 50.16113 8.64432 8214 ft 256 kts 70°
2026-04-16 21:18 50.16733 8.67039 8117 ft 256 kts 69°
2026-04-16 21:18 50.17349 8.69633 7870 ft 255 kts 69°
2026-04-16 21:18 50.17964 8.72222 7626 ft 254 kts 69°
2026-04-16 21:19 50.18576 8.74803 7372 ft 253 kts 69°
2026-04-16 21:19 50.19185 8.77376 7129 ft 252 kts 69°
2026-04-16 21:19 50.19794 8.79935 6813 ft 251 kts 69°
2026-04-16 21:19 50.20397 8.82496 6468 ft 251 kts 69°
2026-04-16 21:20 50.20996 8.85048 6109 ft 250 kts 70°
2026-04-16 21:20 50.21593 8.87594 5752 ft 249 kts 70°
2026-04-16 21:20 50.22098 8.90176 5397 ft 248 kts 80°
2026-04-16 21:20 50.22057 8.92830 5087 ft 243 kts 109°
2026-04-16 21:21 50.21274 8.95109 5026 ft 238 kts 125°
2026-04-16 21:21 50.20315 8.97223 5015 ft 239 kts 126°
2026-04-16 21:21 50.19321 8.99300 5001 ft 239 kts 139°
2026-04-16 21:21 50.17890 9.00537 5018 ft 235 kts 165°
2026-04-16 21:22 50.16276 9.00717 4975 ft 233 kts 188°
2026-04-16 21:22 50.14680 9.00293 4845 ft 233 kts 192°
2026-04-16 21:22 50.13091 8.99782 4707 ft 233 kts 192°
2026-04-16 21:22 50.11501 8.99276 4493 ft 233 kts 192°
2026-04-16 21:23 50.09945 8.98626 4231 ft 232 kts 202°
2026-04-16 21:23 50.08619 8.97247 3983 ft 230 kts 227°
2026-04-16 21:23 50.07774 8.95158 3706 ft 227 kts 248°
2026-04-16 21:23 50.07278 8.92951 3507 ft 210 kts 252°
2026-04-16 21:24 50.06852 8.90859 3398 ft 189 kts 252°
2026-04-16 21:24 50.06467 8.88989 3292 ft 185 kts 251°
2026-04-16 21:24 50.06146 8.87040 3188 ft 187 kts 261°
2026-04-16 21:24 50.06127 8.85009 3105 ft 188 kts 273°
2026-04-16 21:25 50.06231 8.82978 3010 ft 188 kts 274°
2026-04-16 21:25 50.06346 8.80949 2929 ft 188 kts 274°
2026-04-16 21:25 50.06457 8.78951 2843 ft 180 kts 274°
2026-04-16 21:25 50.06556 8.77097 2773 ft 166 kts 274°
2026-04-16 21:26 50.06650 8.75313 2582 ft 166 kts 274°
2026-04-16 21:26 50.06742 8.73515 2379 ft 167 kts 274°
2026-04-16 21:26 50.06830 8.71714 2196 ft 163 kts 273°
2026-04-16 21:26 50.06701 8.70056 2035 ft 148 kts 252°
2026-04-16 21:27 50.06268 8.68634 1798 ft 142 kts 243°
2026-04-16 21:27 50.05923 8.67216 1600 ft 139 kts 252°
2026-04-16 21:27 50.05648 8.65767 1423 ft 140 kts 252°
2026-04-16 21:27 50.05342 8.64338 1247 ft 139 kts 250°
2026-04-16 21:28 50.05014 8.62927 1034 ft 138 kts 249°
2026-04-16 21:28 50.04685 8.61534 835 ft 137 kts 252°
2026-04-16 21:28 50.04353 8.60154 643 ft 136 kts 249°
2026-04-16 21:28 50.04032 8.58782 426 ft 134 kts 252°
2026-04-16 21:29 50.03712 8.57453 371 ft 125 kts 251°
2026-04-16 21:29 50.03444 8.56304 366 ft 91 kts 249°
2026-04-16 21:29 50.03314 8.55679 355 ft 51 kts 264°
2026-04-16 21:29 50.03332 8.55319 357 ft 1 kts 281°
2026-04-16 21:30 50.03337 8.55280 354 ft 8 kts 281°
2026-04-16 21:30 50.03343 8.55232 352 ft 0 kts 280°
2026-04-16 21:32 50.03376 8.55173 355 ft 13 kts 331°
2026-04-16 21:32 50.03412 8.55185 357 ft 4 kts 34°
2026-04-16 21:33 50.03446 8.55278 359 ft 22 kts 68°
2026-04-16 21:33 50.03511 8.55549 362 ft 28 kts 69°
2026-04-16 21:33 50.03580 8.55837 363 ft 28 kts 69°
2026-04-16 21:33 50.03649 8.56126 367 ft 29 kts 69°
2026-04-16 21:34 50.03720 8.56420 366 ft 30 kts 69°
2026-04-16 21:34 50.03793 8.56733 366 ft 31 kts 70°
2026-04-16 21:34 50.03870 8.57054 367 ft 32 kts 69°
2026-04-16 21:34 50.03946 8.57368 370 ft 30 kts 69°
2026-04-16 21:35 50.04020 8.57679 378 ft 31 kts 70°
2026-04-16 21:35 50.04095 8.57994 377 ft 28 kts 70°
2026-04-16 21:35 50.04190 8.58169 375 ft 22 kts 29°
2026-04-16 21:35 50.04297 8.58196 375 ft 14 kts 343°
2026-04-16 21:36 50.04395 8.58141 378 ft 16 kts 339°
2026-04-16 21:36 50.04477 8.58093 372 ft 0 kts 339°
2026-04-16 21:38 50.04491 8.58085 375 ft 10 kts 339°
2026-04-16 21:38 50.04573 8.58037 374 ft 16 kts 339°
2026-04-16 21:38 50.04688 8.57969 372 ft 13 kts 335°
2026-04-16 21:38 50.04715 8.57947 371 ft 12 kts 333°
2026-04-16 21:39 50.04762 8.57852 371 ft 11 kts 271°
2026-04-16 21:39 50.04763 8.57768 367 ft 0 kts 271°
2026-04-16 21:39 50.04763 8.57757 367 ft 2 kts 271°
2026-04-16 21:39 50.04763 8.57745 367 ft 0 kts 271°